EDT,Max TemperatureF,Mean TemperatureF,Min TemperatureF,Max Dew PointF,MeanDew PointF,Min DewpointF,Max Humidity, Mean Humidity, Min Humidity, Max Sea Level PressureIn, Mean Sea Level PressureIn, Min Sea Level PressureIn, Max VisibilityMiles, Mean VisibilityMiles, Min VisibilityMiles, Max Wind SpeedMPH, Mean Wind SpeedMPH, Max Gust SpeedMPH,PrecipitationIn, CloudCover, Events, WindDirDegrees
2013-7-1,78,72,66,70,68,66,100,88,69,29.96,29.93,29.88,15,9,2,12,3,18,0.00,6,Rain,167
2013-7-2,82,74,66,73,70,66,100,81,66,30.10,30.06,30.01,20,15,7,12,4,,0.00,5,,193
2013-7-3,84,78,71,72,69,66,100,78,58,30.22,30.19,30.16,20,16,5,12,6,,0.00,5,Rain,211
2013-7-4,86,78,69,73,70,68,100,82,58,30.26,30.21,30.16,20,13,2,30,4,28,0.00,5,Rain-Thunderstorm,218
2013-7-5,84,76,69,72,70,68,100,73,62,30.22,30.18,30.14,20,15,10,14,7,25,0.00,5,,229
2013-7-6,87,78,68,73,71,68,100,73,55,30.23,30.16,30.07,15,11,10,9,3,,0.00,4,,230
2013-7-7,78,74,71,72,70,68,100,88,69,30.15,30.11,30.06,15,11,3,9,6,,0.00,6,Rain,224
2013-7-8,80,74,68,72,68,64,100,79,61,30.17,30.13,30.09,15,11,3,12,8,18,0.00,5,Rain,236
2013-7-9,80,74,69,75,72,70,100,90,78,30.12,30.08,30.03,10,8,2,18,10,23,0.00,6,Rain-Thunderstorm,212
2013-7-10,84,75,66,75,70,66,100,91,74,30.03,29.97,29.87,20,8,2,23,10,38,0.00,7,Rain-Thunderstorm,217
2013-7-11,75,70,66,68,64,61,100,81,61,30.02,30.00,29.99,10,8,5,7,1,,0.00,6,,180
2013-7-12,73,66,59,66,64,59,100,87,73,30.11,30.09,30.04,10,9,8,12,4,,0.00,5,,21
2013-7-13,80,71,62,68,67,63,100,78,61,30.25,30.20,30.14,20,13,10,7,2,,0.00,5,,71
2013-7-14,87,80,73,72,69,68,88,65,52,30.35,30.31,30.20,20,16,8,12,7,,0.00,3,,177
2013-7-15,87,78,68,73,70,66,100,71,55,30.39,30.34,30.29,20,14,10,9,2,,0.00,2,,237
2013-7-16,87,79,71,75,73,72,100,79,62,30.37,30.33,30.28,20,13,10,12,2,,0.00,4,,246
2013-7-17,87,80,73,75,75,73,100,85,66,30.34,30.28,30.21,10,7,2,12,3,20,0.00,6,,265
2013-7-18,89,80,71,77,74,72,100,74,55,30.21,30.15,30.07,10,8,3,16,4,,0.00,2,,255
2013-7-19,89,82,75,77,74,72,100,81,62,30.35,30.02,29.94,10,8,5,17,12,24,0.00,3,Rain,219
2013-7-20,80,76,71,73,71,68,100,88,78,29.96,29.93,29.90,15,10,2,17,9,25,0.00,7,Rain,229
2013-7-21,82,76,69,70,70,70,100,82,66,30.02,29.99,29.95,15,12,8,9,2,,0.00,6,,240
2013-7-22,80,72,64,73,71,64,100,94,78,29.95,29.89,29.82,10,5,2,21,2,32,0.00,7,Rain-Thunderstorm,240
2013-7-23,82,74,66,70,68,64,100,85,62,29.81,29.78,29.74,10,7,1,15,5,,0.00,7,Rain,249
2013-7-24,69,66,62,61,56,54,94,71,60,29.99,29.93,29.84,10,10,10,12,8,,0.00,5,,358
2013-7-25,73,62,51,57,54,50,100,68,46,30.10,30.07,30.04,20,16,10,14,4,,0.00,1,,19
2013-7-26,78,64,51,63,57,52,100,69,50,30.14,30.10,30.04,20,16,10,7,1,,0.00,2,,265
2013-7-27,71,65,59,70,67,59,100,95,88,30.00,29.95,29.90,15,8,2,7,1,,0.00,6,Rain-Thunderstorm,238
2013-7-28,75,68,62,64,60,54,100,72,50,30.05,29.97,29.93,20,12,6,21,9,21,0.00,4,Rain,243
2013-7-29,71,62,53,61,56,54,100,71,53,30.21,30.15,30.11,20,15,10,16,6,,0.00,4,,244
2013-7-30,75,64,53,63,58,54,100,74,53,30.28,30.24,30.20,20,12,10,9,1,,0.00,4,,255
2013-7-31,78,66,55,70,63,55,100,83,51,30.18,30.11,30.03,10,8,3,14,2,,0.00,6,Rain,220